Location: Maccacari
(45.1333°N, 11.1333°E)
Time: 16:35:43
(UTC+00:00)

SR - Pass Details

Date: 20 June 2021
Orbit: 577 x 878 km, 66.7° (Epoch: 24 July)

Event Time Altitude Azimuth Distance (km) Brightness Sun altitude
Rises 21:45:01 0° 332° (NNW) 3,372 ? -18.3°
Reaches altitude 10° 21:49:14 10° 2° (N) 2,368 ? -18.6°
Maximum altitude 21:51:24 12° 25° (NNE) 2,170 ? -18.7°
Drops below altitude 10° 21:53:31 10° 49° (NE) 2,285 ? -18.8°
Sets 21:57:24 0° 80° (E) 3,124 ? -19.1°
